{"data":{"norad_id":66762,"intl_designator":"2025-276DA","name":"HYDROGNSS-1","alt_names":[],"object_type":"PAYLOAD","status":"ACTIVE","operator":null,"country":"ESA","launch_date":"2025-11-28","launch_site_code":"AFWTR","launch_vehicle":null,"mission":null,"orbit_class":"UNKNOWN","rcs_meters":null,"size_class":null,"mass_kg":null,"dimensions":null,"purposes":[],"wikipedia_slug":null,"has_3d_model":false,"image_url":null,"decayed_at":null,"tle_current":{"epoch":"2026-09-20T21:59:22.986528Z","epoch_age_seconds":81692,"freshness":"FRESH","line1":"1 66762U 25276DA  26263.91623827  .00001637  00000+0  99172-4 0  9994","line2":"2 66762  97.4116 333.6075 0012441  82.1236 278.1406 15.11894268 44818","mean_motion":15.11894268,"eccentricity":0.0012441,"inclination_deg":97.4116,"raan_deg":333.6075,"arg_perigee_deg":82.1236,"mean_anomaly_deg":278.1406,"bstar":9.9172e-5,"rev_number":4481,"period_min":95.244755567788,"perigee_km":521.82849335832,"apogee_km":539.01837342869,"semimajor_km":6908.5604333935,"source":"CELESTRAK","updated_at":"2026-09-21T09:00:16.183188Z"}}}